Tracking 34717 objects as of 14-Jul-2026
HD Live streaming from Space Station
objects crossing your sky now

HULIANWANG DIGUI-04

Track HULIANWANG DIGUI-04 now!
10-day predictions


NORAD ID: 62326
Int'l Code: 2024-240D
Perigee: 1,173.5 km
Apogee: 1,176.7 km
Inclination: 86.5 °
Period: 108.7 minutes
Semi major axis: 7546 km
RCS: Unknown
Launch date: December 16, 2024
Source: People's Republic of China (PRC)
Launch site: Wenchang Satellite Launch Center (WSC)
Your satellite tracking list
Your tracking list is empty




NASA's NSSDC Master Catalog

Two Line Element Set (TLE):
1 62326U 24240D   26195.18057168  .00000034  00000-0  44754-4 0  9995
2 62326  86.5010 334.0718 0002114 104.0961 256.0408 13.24410378 76210
Source of the keplerian elements: AFSPC